Regional Weather Roundup
Issued by NWS Sioux Falls, SD

Home | Current Version | Previous Version | Graphics & Text | Print | Product List | Glossary On
Versions: 1 2 3 4 5 6 7 8 9 10 11 12 13 14 15 16 17 18 19 20 21 22 23 24 25 26 27 28 29 30 31 32 33 34 35 36 37 38 39 40 41 42 43 44 45 46 47 48 49 50
806
ASUS43 KFSD 272010
RWRFSD

WEATHER ROUNDUP FOR SE SOUTH DAKOTA/SW MINNESOTA/NW IOWA
NATIONAL WEATHER SERVICE SIOUX FALLS SD
200 PM CST MON FEB 27 2017

NOTE: "FAIR" INDICATES FEW OR NO CLOUDS BELOW 12,000 FEET WITH NO
SIGNIFICANT WEATHER AND OR OBSTRUCTIONS TO VISIBILITY.


SDZ038>040-050-052>070-272100-
SOUTHEAST SOUTH DAKOTA

CITY           SKY/WX    TMP DP  RH WIND       PRES   REMARKS
BROOKINGS      CLOUDY    44  19  36 S22G31    29.75F
CHAMBERLAIN    MOSUNNY   49  28  44 S21G28    29.69F
HURON          CLOUDY    45  19  35 S13G23    29.73F
MADISON        FAIR      45  23  42 S24G30    29.76F
MITCHELL       MOSUNNY   45  25  45 S15G24    29.75F
SIOUX FALLS    CLOUDY    43  24  47 S18G25    29.80F
WINNER         FAIR      46  28  49 SW17      29.68F
YANKTON        CLOUDY    43  27  52 S10       29.79F
$$

MNZ071-072-080-081-089-090-097-098-272100-
SOUTHWEST MINNESOTA

CITY           SKY/WX    TMP DP  RH WIND       PRES   REMARKS
FAIRMONT       CLOUDY    36  26  67 S12       29.90F
JACKSON        CLOUDY    41  23  48 S9        29.87F
LUVERNE        CLOUDY    43  27  52 S14       29.83F
MARSHALL       PTSUNNY   46  22  38 S16       29.81F
MONTEVIDEO     CLOUDY    45  27  49 SW9       29.84F
PIPESTONE      CLOUDY    43  25  49 S16       29.80F
REDWOOD FALLS  CLOUDY    46  20  35 SW13      29.85F
TRACY          MOSUNNY   46  27  47 S13       29.83F
WINDOM         MOSUNNY   45  23  42 S9        29.86F
WORTHINGTON    CLOUDY    40  26  57 S12       29.85
$$

IAZ001>003-012>014-020>022-031-032-NEZ013-014-SDZ071-272100-
NORTHWEST IOWA

CITY           SKY/WX    TMP DP  RH WIND       PRES   REMARKS
CHEROKEE       CLOUDY    41  30  64 S8        29.88F
DENISON        CLOUDY    43  34  70 SE7       29.86F
ESTHERVILLE    SUNNY     36  28  73 S17       29.87F
LE MARS        SUNNY     43  27  52 S16       29.85F
SHELDON        SUNNY     41  30  65 S17G24    29.82F
SIOUX CITY     SUNNY     42  29  59 SE9       29.85F
SPENCER        SUNNY     39  27  62 S15       29.87F
STORM LAKE     CLOUDY    37  28  70 S14       29.88F
$$

ABBREVIATIONS USED IN REMARKS
   TC - TEMPERATURE IN CELSIUS
  WCI - WIND CHILL INDEX
   HX - HEAT INDEX
  VSB - VISIBILITY





USA.gov is the U.S. government's official web portal to all federal, state and local government web resources and services.